{"data":{"norad_id":48658,"epoch":"2026-05-25T05:12:28.633248Z","epoch_age_seconds":55976,"freshness":"FRESH","line1":"1 48658U 21044W   26145.21699807  .00025180  00000+0  85679-3 0  9995","line2":"2 48658  53.1571 118.3778 0002957 127.1310 232.9962 15.30296676275549","mean_motion":15.30296676,"eccentricity":0.0002957,"inclination_deg":53.1571,"raan_deg":118.3778,"arg_perigee_deg":127.131,"mean_anomaly_deg":232.9962,"bstar":0.00085679,"rev_number":27554,"period_min":94.099400631515,"perigee_km":472.8999766504,"apogee_km":476.95287836143,"semimajor_km":6853.0634275059,"source":"CELESTRAK","updated_at":"2026-05-25T13:38:16.756822Z"}}